Regional Weather Roundup
Issued by NWS

Home | Current Version | Previous Version | Graphics & Text | Print | Product List | Glossary On
Versions: 1 2 3 4 5 6 7 8 9 10 11 12 13 14 15 16 17 18 19 20 21 22 23 24 25 26 27 28 29 30 31 32 33 34 35 36 37 38 39 40 41 42 43 44 45 46 47 48 49 50
000
ASUS44 KMEG 221210
RWRTN
TENNESSEE HOURLY STATE WEATHER ROUNDUP
NATIONAL WEATHER SERVICE MEMPHIS TN
600 AM CST SAT NOV 22 2014

TNZ002-004-019-021-049-052-054-088>092-221300-
WEST TENNESSEE

CITY           SKY/WX    TMP DP  RH WIND       PRES   REMARKS
MEMPHIS INTL   MOCLDY    54  45  71 SE6       30.26S
NWS MEMPHIS      N/A    N/A N/A N/A MISG        N/A
JACKSON        CLOUDY    53  39  59 S8        30.28F
DYERSBURG      MOCLDY    52  36  54 S6        30.27S
UNION CITY     MOCLDY    50  41  71 S13       30.24S
PARIS          MOCLDY    46  39  76 S9        30.28S
HUNTINGDON     CLOUDY    50  37  60 S12       30.29S
LEXINGTON      PTCLDY    46  37  71 CALM      30.31R
SAVANNAH       MOCLDY    48  37  66 S7        30.32S
$$

TNZ008-025-027-028-033-062-065-066-221300-
NORTH MIDDLE TENNESSEE

CITY           SKY/WX    TMP DP  RH WIND       PRES   REMARKS
NASHVILLE      MOCLDY    44  31  60 NE3       30.36R
CLARKSVILLE    CLOUDY    49  35  58 S6        30.31R
SMYRNA         CLOUDY    40  32  73 CALM      30.37S
COOKEVILLE     CLEAR     43  25  49 S7        30.37S
CROSSVILLE     CLEAR     39  21  48 SE3       30.39S
$$

TNZ061-075-076-078-094-096-097-221300-
SOUTH MIDDLE TENNESSEE

CITY           SKY/WX    TMP DP  RH WIND       PRES   REMARKS
FAYETTEVILLE   CLEAR     39  28  65 N16G38    30.35S WCI  30
TULLAHOMA      CLEAR     43  25  49 SE5       30.37S
WINCHESTER     CLEAR     45  27  49 SE7       30.38S
MCMINNVILLE    CLEAR     46  28  49 CALM      30.37S
COLUMBIA       PTCLDY    46  34  61 CALM      30.34R
SHELBYVILLE    CLEAR     43  28  56 SE5       30.38S
$$

TNZ017-018-042-046-047-221300-
NORTHEAST TENNESSEE

CITY           SKY/WX    TMP DP  RH WIND       PRES   REMARKS
TRI CITIES     PTCLDY    21  16  81 CALM      30.45R
ELIZABETHTON   SUNNY     28  18  64 NE3       30.45R
$$

TNZ012-013-036-069-073-074-221300-
CENTRAL EAST TENNESSEE

CITY           SKY/WX    TMP DP  RH WIND       PRES   REMARKS
KNOXVILLE      MOCLDY    28  21  75 CALM      30.44S
OAK RIDGE      CLEAR     27  23  85 CALM      30.46S
GATLINBURG     SUNNY     21  19  93 CALM      30.45R
MORRISTOWN     SUNNY     28  18  64 NE3       30.43S
$$

TNZ083-085-099-221300-
SOUTHEAST TENNESSEE

CITY           SKY/WX    TMP DP  RH WIND       PRES   REMARKS
CHATTANOOGA    PTCLDY    30  27  88 CALM      30.45S
$$

SKY/WX REPORTED AS FAIR MEANS FEW OR NO CLOUDS BELOW
12 THOUSAND FEET.




USA.gov is the U.S. government's official web portal to all federal, state and local government web resources and services.